When you browse on this site, cookies collect data to enhance your experience and personalize the content and advertising you see.
Visit our Privacy Policy to learn more. By continuing to use the site, you agree to this use of cookies and data.
  • En España
  • Lista de países
  • Para 7 días
  • Temperatura del agua
  • El tiempo en el mapa
  • Informadores
  • user-avatar
    Iniciar sesión

    Tiempo cada hora Lezhe

    Hoy, 5 Junio, Viernes

    Tiempo Temperatura Precipitaciones Viento Presión Humedad
    00:00 +15°C° 0 mm 2 mps 733 mmHg 77%
    01:00 +15°C° 0 mm 2 mps 733 mmHg 78%
    02:00 +15°C° 0 mm 2 mps 733 mmHg 74%
    03:00 +15°C° 0 mm 2 mps 733 mmHg 70%
    04:00 +15°C° 0 mm 2 mps 732 mmHg 65%
    05:00 +16°C° 0 mm 1 mps 732 mmHg 64%
    06:00 +18°C° 0 mm 1 mps 733 mmHg 64%
    07:00 +19°C° 0 mm 1 mps 733 mmHg 63%
    08:00 +19°C° 0 mm 2 mps 733 mmHg 58%
    09:00 +21°C° 0 mm 2 mps 733 mmHg 53%
    10:00 +23°C° 0 mm 2 mps 733 mmHg 47%
    11:00 +20°C° 1.1 mm 2 mps 733 mmHg 61%
    12:00 +18°C° 1.1 mm 2 mps 732 mmHg 74%
    13:00 +17°C° 1.1 mm 2 mps 732 mmHg 87%
    14:00 +18°C° 0 mm 2 mps 732 mmHg 80%
    15:00 +20°C° 0 mm 2 mps 731 mmHg 74%
    16:00 +21°C° 0 mm 2 mps 731 mmHg 67%
    17:00 +20°C° 0 mm 2 mps 731 mmHg 73%
    18:00 +19°C° 0 mm 2 mps 731 mmHg 78%
    19:00 +17°C° 0 mm 2 mps 731 mmHg 84%
    20:00 +17°C° 0 mm 2 mps 731 mmHg 82%
    21:00 +17°C° 0 mm 3 mps 731 mmHg 80%
    22:00 +17°C° 0 mm 3 mps 731 mmHg 78%
    23:00 +17°C° 0 mm 3 mps 730 mmHg 78%

    Mañana, 6 Junio, Sábado

    Tiempo Temperatura Precipitaciones Viento Presión Humedad
    00:00 +17°C° 0 mm 3 mps 730 mmHg 78%
    01:00 +17°C° 0 mm 2 mps 730 mmHg 78%
    02:00 +17°C° 0 mm 3 mps 730 mmHg 79%
    03:00 +17°C° 0 mm 3 mps 729 mmHg 79%
    04:00 +16°C° 0 mm 3 mps 729 mmHg 80%
    05:00 +17°C° 0 mm 3 mps 729 mmHg 78%
    06:00 +18°C° 0 mm 2 mps 730 mmHg 77%
    07:00 +19°C° 0 mm 2 mps 730 mmHg 75%
    08:00 +21°C° 0.1 mm 2 mps 730 mmHg 69%
    09:00 +24°C° 0.1 mm 2 mps 730 mmHg 63%
    10:00 +26°C° 0.1 mm 2 mps 731 mmHg 57%
    11:00 +26°C° 0.7 mm 2 mps 731 mmHg 57%
    12:00 +26°C° 0.7 mm 2 mps 731 mmHg 56%
    13:00 +26°C° 0.7 mm 3 mps 730 mmHg 56%
    14:00 +25°C° 1.1 mm 2 mps 731 mmHg 60%
    15:00 +25°C° 1.1 mm 2 mps 731 mmHg 64%
    16:00 +24°C° 1.1 mm 2 mps 731 mmHg 68%
    17:00 +22°C° 0.4 mm 1 mps 731 mmHg 73%
    18:00 +21°C° 0.4 mm 1 mps 731 mmHg 78%
    19:00 +19°C° 0.4 mm 1 mps 731 mmHg 84%
    20:00 +19°C° 0 mm 1 mps 731 mmHg 84%
    21:00 +19°C° 0 mm 1 mps 732 mmHg 84%
    22:00 +19°C° 0 mm 1 mps 732 mmHg 84%
    23:00 +18°C° 0 mm 1 mps 732 mmHg 85%

    Pasado mañana, 7 Junio, Domingo

    Tiempo Temperatura Precipitaciones Viento Presión Humedad
    00:00 +18°C° 0 mm 1 mps 732 mmHg 86%
    01:00 +16°C° 0 mm 1 mps 732 mmHg 88%
    02:00 +16°C° 0 mm 1 mps 732 mmHg 89%
    03:00 +16°C° 0 mm 1 mps 732 mmHg 89%
    04:00 +15°C° 0 mm 1 mps 732 mmHg 90%
    05:00 +18°C° 0 mm 1 mps 733 mmHg 86%
    06:00 +19°C° 0 mm 1 mps 733 mmHg 82%
    07:00 +21°C° 0 mm 1 mps 733 mmHg 78%
    08:00 +22°C° 0 mm 1 mps 733 mmHg 73%
    09:00 +23°C° 0 mm 2 mps 733 mmHg 68%
    10:00 +24°C° 0 mm 2 mps 733 mmHg 64%
    11:00 +24°C° 0 mm 2 mps 733 mmHg 63%
    12:00 +25°C° 0 mm 2 mps 733 mmHg 63%
    13:00 +25°C° 0 mm 3 mps 733 mmHg 62%
    14:00 +25°C° 0 mm 2 mps 733 mmHg 62%
    15:00 +25°C° 0 mm 2 mps 733 mmHg 62%
    16:00 +24°C° 0 mm 2 mps 733 mmHg 62%
    17:00 +23°C° 0 mm 2 mps 733 mmHg 70%
    18:00 +21°C° 0 mm 1 mps 733 mmHg 77%
    19:00 +20°C° 0 mm 1 mps 733 mmHg 84%
    20:00 +19°C° 0 mm 1 mps 734 mmHg 85%
    21:00 +18°C° 0 mm 1 mps 734 mmHg 86%
    22:00 +18°C° 0 mm 1 mps 734 mmHg 88%
    23:00 +18°C° 0 mm 1 mps 734 mmHg 88%

    8 Junio, Lunes

    Tiempo Temperatura Precipitaciones Viento Presión Humedad
    00:00 +18°C° 0 mm 1 mps 734 mmHg 88%
    01:00 +16°C° 0 mm 1 mps 734 mmHg 88%
    02:00 +16°C° 0 mm 1 mps 733 mmHg 87%
    03:00 +16°C° 0 mm 1 mps 733 mmHg 86%
    04:00 +16°C° 0 mm 1 mps 733 mmHg 86%
    05:00 +19°C° 0 mm 1 mps 733 mmHg 81%
    06:00 +21°C° 0 mm 1 mps 733 mmHg 76%
    07:00 +22°C° 0 mm 1 mps 733 mmHg 71%
    08:00 +23°C° 0.2 mm 1 mps 733 mmHg 68%
    09:00 +24°C° 0.2 mm 1 mps 733 mmHg 66%
    10:00 +25°C° 0.2 mm 2 mps 733 mmHg 63%
    11:00 +25°C° 0.9 mm 2 mps 733 mmHg 65%
    12:00 +25°C° 0.9 mm 2 mps 733 mmHg 66%
    13:00 +25°C° 0.9 mm 3 mps 733 mmHg 67%
    14:00 +25°C° 0.6 mm 2 mps 733 mmHg 67%
    15:00 +25°C° 0.6 mm 2 mps 733 mmHg 67%
    16:00 +25°C° 0.6 mm 1 mps 733 mmHg 66%
    17:00 +23°C° 0.4 mm 1 mps 733 mmHg 72%
    18:00 +22°C° 0.4 mm 1 mps 733 mmHg 77%
    19:00 +20°C° 0.4 mm 1 mps 733 mmHg 83%
    20:00 +20°C° 0.3 mm 1 mps 733 mmHg 84%
    21:00 +19°C° 0.3 mm 1 mps 733 mmHg 84%
    22:00 +19°C° 0.3 mm 1 mps 734 mmHg 85%
    23:00 +18°C° 0.5 mm 1 mps 734 mmHg 85%

    9 Junio, Martes

    Tiempo Temperatura Precipitaciones Viento Presión Humedad
    00:00 +18°C° 0.5 mm 1 mps 734 mmHg 85%
    01:00 +18°C° 0.5 mm 1 mps 733 mmHg 85%
    02:00 +18°C° 0.5 mm 1 mps 733 mmHg 85%
    03:00 +18°C° 0.5 mm 1 mps 733 mmHg 84%
    04:00 +18°C° 0.5 mm 1 mps 733 mmHg 84%
    05:00 +19°C° 0.3 mm 1 mps 733 mmHg 81%
    06:00 +21°C° 0.3 mm 1 mps 734 mmHg 77%
    07:00 +22°C° 0.3 mm 1 mps 734 mmHg 74%
    08:00 +24°C° 0.2 mm 1 mps 734 mmHg 68%
    09:00 +25°C° 0.2 mm 1 mps 734 mmHg 63%
    10:00 +26°C° 0.2 mm 1 mps 734 mmHg 58%
    11:00 +26°C° 0.6 mm 2 mps 734 mmHg 57%
    12:00 +27°C° 0.6 mm 2 mps 734 mmHg 56%
    13:00 +27°C° 0.6 mm 2 mps 734 mmHg 55%
    14:00 +26°C° 0.3 mm 2 mps 733 mmHg 56%
    15:00 +26°C° 0.3 mm 1 mps 733 mmHg 56%
    16:00 +26°C° 0.3 mm 1 mps 733 mmHg 57%
    17:00 +24°C° 0 mm 1 mps 733 mmHg 63%
    18:00 +22°C° 0 mm 1 mps 733 mmHg 69%
    19:00 +19°C° 0 mm 0 mps 733 mmHg 74%
    20:00 +20°C° 0 mm 1 mps 734 mmHg 75%
    21:00 +20°C° 0 mm 1 mps 734 mmHg 75%
    22:00 +19°C° 0 mm 1 mps 734 mmHg 75%
    23:00 +19°C° 0 mm 1 mps 734 mmHg 76%

    10 Junio, Miércoles

    Tiempo Temperatura Precipitaciones Viento Presión Humedad
    00:00 +18°C° 0 mm 1 mps 734 mmHg 76%
    01:00 +16°C° 0 mm 0 mps 734 mmHg 76%
    02:00 +18°C° 0 mm 1 mps 734 mmHg 76%
    03:00 +18°C° 0 mm 1 mps 734 mmHg 77%
    04:00 +16°C° 0 mm 1 mps 733 mmHg 77%
    05:00 +19°C° 0 mm 1 mps 734 mmHg 72%
    06:00 +21°C° 0 mm 1 mps 734 mmHg 68%
    07:00 +21°C° 0 mm 0 mps 734 mmHg 63%
    08:00 +24°C° 0.1 mm 1 mps 734 mmHg 61%
    09:00 +25°C° 0.1 mm 1 mps 734 mmHg 58%
    10:00 +26°C° 0.1 mm 2 mps 734 mmHg 55%
    11:00 +26°C° 0.5 mm 2 mps 734 mmHg 57%
    12:00 +26°C° 0.5 mm 2 mps 734 mmHg 59%
    13:00 +26°C° 0.5 mm 3 mps 734 mmHg 60%
    14:00 +25°C° 0.7 mm 3 mps 734 mmHg 62%
    15:00 +25°C° 0.7 mm 2 mps 734 mmHg 63%
    16:00 +25°C° 0.7 mm 2 mps 734 mmHg 65%
    17:00 +23°C° 0.2 mm 2 mps 734 mmHg 71%
    18:00 +22°C° 0.2 mm 1 mps 734 mmHg 76%
    19:00 +20°C° 0.2 mm 1 mps 734 mmHg 82%
    20:00 +20°C° 0 mm 1 mps 734 mmHg 82%
    21:00 +19°C° 0 mm 1 mps 735 mmHg 83%
    22:00 +18°C° 0 mm 1 mps 735 mmHg 84%
    23:00 +18°C° 0 mm 1 mps 735 mmHg 85%
    Mostrar más